Location: *
(52.7667°N, 13.6331°E)
Time: 06:13:08
(UTC+00:00)

Daily predictions for brighter satellites

Satellite Brightness Start Highest point End
(mag) Time Altitude Azimuth Time Altitude Azimuth Time Altitude Azimuth
CZ-2C R/B 4.4 17:49:22 10° ESE 17:53:24 23° NE 17:57:36 10° N
NOAA 11 4.3 17:48:31 10° SSE 17:54:02 87° ENE 17:59:34 10° NNW
YAOGAN 6 4.3 17:51:30 10° SSW 17:54:56 38° W 17:58:26 10° NNW
Cosmos 2360 Rocket 2.8 17:51:09 10° NW 17:56:43 61° WSW 18:02:16 10° SSE
Cosmos 1743 2.7 17:53:00 10° S 17:56:51 87° E 18:00:44 10° NNE
USA 186 2.6 17:54:17 10° SE 17:57:22 35° ENE 18:00:33 10° N
Cosmos 1461 4.4 17:55:20 10° SSE 17:57:40 15° ESE 18:00:00 10° ENE
Resurs 01 Rocket 3.1 17:55:33 10° ESE 17:58:48 20° ENE 18:02:04 10° N
Cosmos 389 Rocket 4.2 17:57:06 10° NNE 17:59:23 16° ENE 18:01:39 10° ESE
Cosmos 2082 Rocket 4.3 17:54:46 10° W 17:59:38 28° NW 18:04:34 10° NNE
DMSP B5D1-3 4.5 17:58:48 10° NNE 18:03:56 78° ESE 18:09:01 10° SSW
ASTEX 1 4.0 17:59:44 10° NNE 18:04:14 35° E 18:08:42 10° SSE
Meteor 1-4 Rocket 4.4 18:02:20 10° NNE 18:04:35 16° ENE 18:06:49 10° E
GP-B 3.2 18:01:32 10° N 18:05:57 59° E 18:10:19 10° SSE
Cosmos 1842 3.2 18:03:07 10° N 18:07:07 83° ENE 18:11:05 10° SSE
Okean 2 Rocket 3.2 18:03:10 10° S 18:07:39 89° WNW 18:12:11 10° N
COSMOS 2455 3.1 18:03:01 10° NW 18:09:02 73° WSW 18:15:02 10° SSE
Okean 1 Rocket 3.8 18:06:34 10° SSE 18:10:23 32° E 18:14:16 10° NNE
CZ-4 R/B 4.1 18:09:26 10° SSW 18:12:33 23° W 18:15:44 10° NW
Meteor 2-9 Rocket 4.3 18:08:37 10° S 18:14:18 60° E 18:19:52 10° NNE
COSMOS 2487 3.4 18:12:07 10° SW 18:15:32 51° WNW 18:18:57 10° NNE
Cosmos 1833 4.2 18:10:56 10° SSW 18:16:36 68° ESE 18:22:15 10° NE
Timation 2 Rocket 4.3 18:11:41 10° S 18:17:55 47° ESE 18:23:57 10° NE
Cosmos 2327 Rocket 4.5 18:12:01 10° N 18:18:22 76° E 18:24:33 10° SSE
Ariane Rocket 3.7 18:14:31 10° S 18:19:30 58° WSW 18:24:32 10° NNW
CZ-2C R/B 3.9 18:18:45 10° NNE 18:23:07 47° E 18:27:24 10° S
Cosmos 2297 Rocket 3.9 18:24:38 12° E 18:24:38 12° E 18:26:14 10° ENE
ERBS 3.4 18:21:40 10° WNW 18:24:53 38° N 18:27:56 11° ENE
Nadezhda 1 Rocket 4.0 18:19:12 10° S 18:25:06 57° E 18:31:03 10° NNE
Cosmos 407 Rocket 4.0 18:23:00 10° NNW 18:27:56 42° NE 18:31:58 14° ESE
SPOT 3 Rocket 3.5 18:24:57 10° SSE 18:30:05 77° ENE 18:35:15 10° NNW
NOSS 3-4 (A) 3.8 18:24:07 10° NW 18:30:57 80° NE 18:37:42 13° SE
NOSS 3-4 (C) 3.8 18:24:12 10° NW 18:31:03 80° NE 18:37:46 14° SE
Cosmos 1536 Rocket 4.3 18:27:02 10° NNW 18:31:18 56° W 18:35:31 10° S
Cosmos 2333 Rocket 2.3 18:25:36 10° NNW 18:31:20 85° WSW 18:37:03 10° SSE
Cosmos 405 Rocket 4.2 18:32:19 16° E 18:32:30 16° E 18:34:49 10° NE
ARGOS 3.2 18:27:58 10° SSE 18:33:14 60° ENE 18:38:33 10° N
Okean 1-7 Rocket 4.2 18:31:27 10° N 18:35:36 38° ENE 18:38:46 16° SE
Cosmos 1295 Rocket 4.5 18:29:34 10° N 18:35:47 65° ENE 18:41:53 10° SSE
Cosmos 1025 Rocket 3.9 18:37:54 10° NNW 18:42:04 51° W 18:46:12 10° S
Cosmos 1892 Rocket 4.0 18:37:47 10° N 18:42:04 42° ENE 18:45:07 17° SE
Cosmos 614 Rocket 4.3 18:36:58 10° NNW 18:42:06 51° ENE 18:45:49 18° SE
NOSS 3-3 (A) 4.0 18:37:03 10° SSW 18:43:00 66° SE 18:49:45 10° NE
NOSS 3-3 (C) 4.0 18:37:09 10° SSW 18:43:06 66° SE 18:49:51 10° NE
Meteor 2-15 Rocket 4.4 18:38:52 10° S 18:45:00 78° E 18:51:11 10° NNE
Aureole 1 Rocket 4.1 18:40:13 10° NNW 18:46:07 58° WSW 18:50:32 10° S
Cosmos 2341 Rocket 4.0 18:42:04 10° N 18:48:21 65° ENE 18:54:32 10° SSE
NOSS 0 Rocket 3.9 18:42:16 10° NNW 18:48:31 83° ENE 18:53:46 15° SE
Cosmos 2237 Rocket 2.3 18:43:33 10° NNW 18:49:15 62° NE 18:53:18 19° SE
Cosmos 1441 Rocket 3.0 18:49:34 10° S 18:53:24 77° ESE 18:57:13 10° NNE
SJ-6B 3.3 18:49:48 10° S 18:53:53 64° WSW 18:58:01 10° NNW
BREEZE-M DEB (TANK) 3.5 18:52:12 10° W 18:56:20 78° S 19:03:23 17° E
Spot 2 Rocket 4.0 18:54:17 22° ESE 18:57:06 41° ENE 19:01:48 10° N
Cosmos 2181 Rocket 4.3 18:51:49 10° SSE 18:57:37 43° E 19:03:33 10° NNE
Cosmos 1980 3.7 18:51:55 10° NNW 18:57:37 73° NE 19:01:30 21° SE
USA 234 3.6 18:52:00 11° ENE 18:58:11 62° N 19:04:39 10° WNW
In-Cosmos 22 4.1 18:53:14 10° N 18:58:34 66° ENE 19:02:48 16° SSE
CZ-4C R/B 3.8 18:55:15 10° W 19:00:34 36° NNW 19:06:50 10° NE
Cosmos 1544 3.2 18:57:38 10° SSW 19:01:13 76° WNW 19:04:51 10° N
SAR-Lupe-2 4.4 18:57:54 10° N 19:01:26 53° WNW 19:04:55 10° SSW
ERS-1 Rocket 4.3 19:00:20 20° E 19:02:06 24° ENE 19:06:04 10° N
H-2A R/B 2.0 18:57:33 10° SSE 19:02:29 82° WSW 19:07:32 10° NNW
MetOp-A 4.1 18:58:13 16° SSE 19:02:30 69° ENE 19:07:51 10° NNW
SL-08 RB Rocket 3.7 18:59:38 16° SSE 19:03:20 76° ENE 19:08:02 10° NNW
Cosmos 1140 Rocket 3.7 18:58:40 10° NNW 19:03:47 54° ENE 19:06:31 26° SE
Cosmos 1707 3.1 19:04:33 10° NNW 19:08:27 65° W 19:12:02 12° S
Cosmos 2218 Rocket 4.1 19:06:45 10° N 19:13:07 62° ENE 19:17:21 22° SSE
Cosmos 1674 3.2 19:10:29 10° N 19:13:59 37° ENE 19:14:23 35° E
ATLAS 2AS CENTAUR R/B 3.4 19:07:06 10° NW 19:14:37 55° WSW 19:20:32 15° SSE
SL-16 R/B 2.7 19:11:19 10° NNW 19:16:47 45° NE 19:19:18 28° ESE
Cosmos 676 Rocket 4.2 19:11:55 10° NNW 19:17:09 57° ENE 19:19:28 32° ESE
ADEOS Rocket 3.4 19:10:20 10° NNE 19:17:24 72° ESE 19:25:01 10° S
SL-8 R/B 4.2 19:14:18 10° SW 19:18:44 39° SSE 19:19:44 34° SE
KORONAS-FOTON 4.3 19:18:09 10° N 19:21:46 39° ENE 19:22:00 39° E
COSMOS 2428 3.9 19:16:45 10° NW 19:22:01 40° WSW 19:27:16 10° S
Cosmos 2366 rocket 4.0 19:16:03 10° N 19:22:24 67° ENE 19:26:19 25° SSE
Meteor 1-15 Rocket 4.2 19:21:54 10° S 19:27:39 77° E 19:33:31 10° NNE
Cosmos 1766 4.3 19:28:59 31° ENE 19:28:59 31° ENE 19:31:44 10° NNE
USA 186 4.5 19:25:50 10° SW 19:28:25 21° W 19:31:05 10° NW
Cosmos 1544 Rocket 3.9 19:28:08 42° ESE 19:28:48 45° E 19:33:04 10° NNE
Cosmos 1455 Rocket 3.1 19:28:37 39° SSE 19:29:56 55° E 19:34:18 10° NNE
Cosmos 864 Rocket 4.4 19:23:58 10° N 19:30:11 72° ENE 19:33:43 27° SSE
Cosmos 2219 Rocket 3.5 19:25:31 10° NW 19:30:33 35° WSW 19:35:35 10° S
CZ-2C R/B 3.2 19:29:08 21° S 19:32:41 77° WSW 19:38:11 10° NNW
Cosmos 389 Rocket 3.3 19:31:05 10° NNW 19:34:24 46° W 19:35:50 28° SSW
Cosmos 1190 Rocket 4.1 19:29:27 10° NNW 19:34:47 74° WSW 19:37:29 29° S
Resurs 01 Rocket 1.9 19:32:17 24° S 19:34:53 66° WSW 19:39:20 10° NNW
SL-8 Rocket 4.0 19:28:53 10° NNW 19:35:09 85° W 19:39:35 20° S
Terra 3.1 19:35:19 24° ENE 19:35:49 24° ENE 19:39:36 10° N
Cosmos 1461 2.7 19:32:13 10° SW 19:36:13 86° NW 19:40:12 10° NE
Resurs 1-3 4.4 19:34:40 17° S 19:37:53 49° W 19:42:11 10° NNW
BREEZE M DEB (TANK) 2.5 19:35:47 10° WSW 19:38:19 55° S 19:38:45 51° SSE
RESURS DK-1 3.7 19:34:57 10° NNW 19:38:30 26° NE 19:39:02 26° NE
Meteor 1-4 Rocket 3.1 19:36:29 10° NNW 19:40:02 55° W 19:41:04 38° SSW
DMSP B5D2-2 4.0 19:40:36 10° NNE 19:45:53 67° ESE 19:48:20 32° S
Cosmos 1626 Rocket 3.4 19:41:41 10° N 19:46:00 63° ENE 19:46:24 60° ESE
Cosmos 1850 Rocket 4.4 19:43:40 10° NNW 19:48:40 45° NE 19:49:37 40° E
Cosmos 1437 Rocket 2.5 19:45:46 10° NNW 19:49:38 89° WNW 19:49:50 80° S
Cosmos 1959 Rocket 4.5 19:44:46 10° NNW 19:50:54 80° W 19:54:27 27° S
CZ-2C R/B 2.9 19:46:08 10° NNE 19:51:30 49° E 19:52:13 46° ESE
Cosmos 2219 3.1 19:45:49 10° SSW 19:51:32 72° ESE 19:57:18 10° NE
Cosmos 2227 Rocket 2.3 19:55:31 49° ESE 19:55:49 49° ESE 20:01:18 10° NE
SPOT 1/Viking Rocket 3.6 20:00:14 55° ESE 20:01:04 64° ENE 20:06:13 10° N
ERBS 3.0 19:58:13 10° WNW 20:00:58 52° NW 20:00:58 52° NW
Cosmos 2056 Rocket 3.4 20:00:16 23° SSW 20:03:43 78° ESE 20:09:09 10° NNE
Cosmos 1602 Rocket 3.4 20:00:33 10° N 20:04:58 79° E 20:04:58 79° E
Meteor 1-24 Rocket 3.8 19:59:17 10° NNW 20:04:58 80° W 20:07:05 41° S
Cosmos 2297 Rocket 2.1 20:06:19 53° SSE 20:07:16 62° ESE 20:12:52 10° NE
Cosmos 405 Rocket 3.4 20:07:26 43° WSW 20:08:08 50° WNW 20:11:46 10° N
Meteor 2-5 Rocket 4.3 20:05:13 10° NNW 20:10:51 56° W 20:13:50 28° SSW
Cosmos 1741 Rocket 4.0 20:10:25 10° NNW 20:15:46 67° ENE 20:16:13 63° E
Cosmos 1624 Rocket 3.9 20:13:24 25° SSW 20:16:30 84° WNW 20:21:44 10° NNE
SPOT 5 2.8 20:23:09 71° NE 20:23:09 71° NE 20:27:55 10° NNW
Cosmos 1943 4.0 20:17:56 10° NNW 20:23:14 37° NE 20:24:04 35° ENE
Cosmos 1626 3.5 20:22:09 10° N 20:24:25 34° N 20:24:25 34° N
Cosmos 1805 4.0 20:27:17 51° NNW 20:27:17 51° NNW 20:30:30 10° N
MOS 1 Rocket 4.3 20:23:12 10° NNE 20:26:59 38° ENE 20:26:59 38° ENE
Thor Agena Rocket 4.4 20:26:29 10° NNE 20:30:07 37° ENE 20:30:07 37° ENE
Cosmos 2237 Rocket 3.7 20:28:06 10° NW 20:32:58 30° WSW 20:35:07 23° SW
IGS 5A 4.0 20:37:25 56° NW 20:37:25 56° NW 20:40:52 10° NNW
Meteor 1-22 Rocket 4.5 20:36:06 40° SSW 20:38:23 75° WNW 20:44:33 10° N
ERS-1 Rocket 3.1 20:40:20 67° WSW 20:40:30 68° WSW 20:45:32 10° NNW
USA 234 3.2 20:39:20 54° E 20:41:00 81° NNE 20:47:36 10° WNW
Landsat 7 4.1 20:41:53 61° W 20:41:53 61° W 20:46:35 10° NNW
Cosmos 1934 Rocket 3.8 20:36:48 10° N 20:42:53 68° ENE 20:43:07 68° E
CZ-4C R/B 3.9 20:45:00 10° NW 20:50:44 35° NNE 20:55:55 16° ENE
Cosmos 1603 3.8 20:50:06 10° NNW 20:55:34 69° NE 20:55:34 69° NE
Cosmos 1452 Rocket 4.1 21:00:00 50° NNE 21:00:00 50° NNE 21:03:51 10° NNE
Nadezhda 3 Rocket 3.9 20:59:21 72° SW 20:59:58 82° W 21:06:13 10° N
SL-16 R/B 2.9 20:55:36 10° NW 21:00:56 43° WSW 21:01:11 42° WSW
Terra 2.6 21:14:13 49° NW 21:14:13 49° NW 21:17:58 10° NNW
Cosmos 1605 Rocket 4.0 21:08:11 10° N 21:14:27 77° ENE 21:14:27 77° ENE
RESURS DK-1 4.2 21:12:45 10° NW 21:14:55 29° NW 21:14:55 29° NW
Cosmos 1821 Rocket 4.5 21:11:55 10° NNW 21:17:53 50° W 21:18:36 47° WSW
Cosmos 2082 3.9 21:19:47 70° NNW 21:19:47 70° NNW 21:25:15 10° NNE
Mayak 1.3 21:19:14 10° NNE 21:19:52 14° NNE 21:19:52 14° NNE
CZ-2C R/B 4.1 21:26:42 10° N 21:31:40 35° WNW 21:33:43 27° WSW
Cosmos 2227 Rocket 3.4 21:37:14 24° W 21:40:03 40° NW 21:45:25 10° NNE
Cosmos 2297 Rocket 3.6 21:48:00 17° W 21:51:41 34° NW 21:56:51 10° NNE
Cosmos 2173 Rocket 4.4 21:52:15 10° N 21:57:43 60° NNE 21:57:43 60° NNE
Cosmos 1802 Rocket 4.4 21:59:19 10° N 22:04:35 56° NNE 22:04:35 56° NNE
Cosmos 1943 4.2 22:01:58 10° NW 22:05:52 40° WNW 22:05:52 40° WNW
Cosmos 2061 Rocket 4.5 22:02:57 10° N 22:08:24 55° NE 22:08:24 55° NE
Cosmos 2263 Rocket 3.6 22:14:37 31° NE 22:14:37 31° NE 22:17:33 10° NE
Cosmos 1459 Rocket 4.4 22:09:48 10° N 22:14:36 58° N 22:14:36 58° N
USA 234 4.2 22:26:41 35° W 22:26:41 35° W 22:30:41 10° WNW
Cosmos 2016 Rocket 4.4 22:27:58 10° N 22:32:43 56° N 22:32:43 56° N
CZ-4C R/B 3.1 22:33:48 10° NW 22:40:30 63° NE 22:41:02 61° NE
SL-16 R/B 4.3 22:47:43 20° ENE 22:49:37 23° NE 22:54:18 10° N
Mayak 1.4 22:55:03 10° N 22:56:26 18° NNW 22:56:26 18° NNW
ATLAS CENTAUR R/B 3.8 23:17:12 25° NNE 23:17:12 25° NNE 23:19:15 10° NE
Cosmos 2082 Rocket 3.7 23:13:27 10° NNW 23:18:33 31° NE 23:19:35 30° ENE
Cosmos 2123 Rocket 4.4 23:20:27 60° N 23:20:27 60° N 23:25:34 10° N
Cosmos 1844 Rocket 4.0 23:26:16 35° NE 23:26:16 35° NE 23:29:38 10° NE
COSMOS 2406 4.2 23:22:51 10° NNW 23:26:47 44° NNW 23:26:47 44° NNW
USA 267 3.3 23:24:21 10° ENE 23:30:27 72° NNE 23:30:27 72° NNE
